Content
SEND FEEDBACK

Daily
Averages
Monthly
Summary
Mongolia

GACHUUNT, MONGOLIA


Home > Asia > Mongolia
Elevation: 1306 meters     Latitude: 47 54N     Longitude: 107 00E

WEATHER
 
SELECT A DAY
Number of Records: 241,413;   Date Range: 10/10/97 - 8/10/14
 
SHARE

PRINT THIS DATA

[ ← Previous Day ]
WEATHER ALMANAC - 31 JANUARY, 2013
[ Next Day → ]
[ °F ]   °C
Weather ElementAverageHighLow
Temperature-19.9 °C-15 °C (12:30 am)-29 °C (11:00 pm)
Dewpoint-23.6 °C-18 °C (12:30 am)-32 °C (11:00 pm)
Humidity71.5 %84 % (10:30 pm)42 % (5:00 pm)
Barometer1018.6 hPa1043.3 hPa (11:00 pm)1011.2 hPa (5:30 am)
Wind Speed12.1 km/h25.3 km/h (12:00 pm)
Weather ElementAverage
Visibility9.7 km
Wind DirectionWSW (250.2 °)

Weather ElementTotal
Precipitation---
Heating Degree Days40.3 (Base 18.3)
Averaged from 54 records on 31 January, 2013
WEATHER CONDITIONS BREAKOUT
WIND DIRECTION BREAKOUT
WEATHER BY HOUR - 31 JANUARY, 2013
[ °F ]   °C
Local TimeTemperatureDewpointHumidityBarometerVisibilityWind DirectionWind SpeedGust SpeedPrecipitationEventsConditions
12:30 AM-15 °C-18 °C78 %1013.2 hPa10 kmNW (310°)10.8 km/hMostly Cloudy
1:00 AM-16 °C-19 °C78 %1012.2 hPa10 kmNW (310°)14.3 km/hScattered Clouds
1:30 AM-16 °C-19 °C78 %1012.2 hPa10 kmNW (310°)14.3 km/hScattered Clouds
2:00 AM-15 °C-20 °C54 %1027.8 hPaNNW (340°)7.2 km/hSnowLight Snow
2:00 AM-16 °C-19 °C78 %1012.2 hPa10 kmNW (310°)7.2 km/hSnowLight Snow
2:30 AM-16 °C-19 °C78 %1012.2 hPa10 kmCalmSnowLight Snow
3:00 AM-16 °C-19 °C78 %1012.2 hPa10 kmCalmSnowLight Snow
3:30 AM-17 °C-20 °C78 %1012.2 hPa10 kmNW (310°)7.2 km/hSnowLight Snow
4:00 AM-17 °C-20 °C78 %1012.2 hPa10 kmWNW (300°)10.8 km/hSnowLight Snow
5:00 AM-16.1 °C-20.6 °C58 %1027.8 hPaCalmSnowLight Snow
5:00 AM-18 °C-21 °C78 %1012.2 hPa10 kmNW (310°)14.3 km/hScattered Clouds
5:30 AM-18 °C-21 °C78 %1011.2 hPa10 kmNW (310°)18 km/hScattered Clouds
6:00 AM-18 °C-22 °C72 %1011.2 hPa10 kmNW (320°)14.3 km/hScattered Clouds
6:30 AM-19 °C-22 °C78 %1011.2 hPa10 kmNW (310°)14.3 km/hScattered Clouds
7:00 AM-20 °C-23 °C78 %1011.2 hPa10 kmWest (260°)7.2 km/hScattered Clouds
7:30 AM-20 °C-23 °C78 %1012.2 hPa10 kmVariable3.5 km/hScattered Clouds
8:00 AM-19.4 °C-24.4 °C52 %1030.8 hPaNW (320°)10.8 km/hSmoke
8:00 AM-20 °C-23 °C78 %1012.2 hPa10 kmWNW (290°)7.2 km/hMostly Cloudy
8:30 AM-21 °C-24 °C77 %1012.2 hPa10 kmWNW (300°)10.8 km/hMostly Cloudy
9:00 AM-22 °C-25 °C77 %1013.2 hPa10 kmNW (310°)7.2 km/hScattered Clouds
9:30 AM-22 °C-25 °C77 %1013.2 hPa10 kmVariable3.5 km/hScattered Clouds
10:00 AM-20 °C-24 °C71 %1013.2 hPa10 kmVariable3.5 km/hScattered Clouds
10:30 AM-20 °C-23 °C78 %1014.2 hPa10 kmNorth (350°)7.2 km/hScattered Clouds
11:00 AM-18.3 °C-23.3 °C51 %1031.8 hPa1.6 kmSSE (160°)3.5 km/hSmoke
11:00 AM-20 °C-23 °C78 %1014.2 hPa10 kmNNW (330°)14.3 km/hScattered Clouds
11:30 AM-19 °C-23 °C71 %1014.2 hPa10 kmNW (320°)18 km/hScattered Clouds
12:00 PM-19 °C-23 °C71 %1015.2 hPa10 kmNW (320°)25.3 km/hScattered Clouds
12:30 PM-19 °C-23 °C71 %1015.2 hPa10 kmNW (320°)25.3 km/hScattered Clouds
1:00 PM-19 °C-23 °C71 %1015.2 hPa10 kmNNW (330°)25.3 km/hScattered Clouds
1:30 PM-19 °C-23 °C71 %1015.2 hPa10 kmNNW (330°)25.3 km/hScattered Clouds
2:00 PM-17.8 °C-23.9 °C45 %1033.2 hPa9.7 kmNW (310°)14.3 km/hSmoke
2:00 PM-19 °C-23 °C71 %1016.3 hPa10 kmNNW (340°)25.3 km/hScattered Clouds
2:30 PM-19 °C-23 °C71 %1016.3 hPa10 kmNNW (330°)25.3 km/hScattered Clouds
3:00 PM-19 °C-23 °C71 %1016.3 hPa10 kmNNW (340°)21.6 km/hScattered Clouds
3:30 PM-19 °C-23 °C71 %1017.3 hPa10 kmNNW (330°)18 km/hScattered Clouds
4:00 PM-19 °C-23 °C71 %1017.9 hPa10 kmNW (320°)18 km/hScattered Clouds
4:30 PM-18 °C-23 °C66 %1017.9 hPa10 kmNNW (340°)14.3 km/hScattered Clouds
5:00 PM-17.2 °C-23.9 °C42 %1035.2 hPa9.7 kmNW (320°)10.8 km/hSmoke
5:00 PM-19 °C-23 °C71 %1017.9 hPa10 kmWNW (300°)10.8 km/hScattered Clouds
5:30 PM-20 °C-24 °C71 %1019 hPa10 kmNW (310°)18 km/hScattered Clouds
6:00 PM-21 °C-25 °C71 %1019 hPaWNW (290°)10.8 km/hClear
6:30 PM-22 °C-26 °C71 %1020 hPaWNW (300°)10.8 km/hClear
7:00 PM-24 °C-27 °C77 %1020 hPaVariable3.5 km/hClear
7:30 PM-23 °C-27 °C71 %1021 hPaVariable7.2 km/hClear
8:00 PM-20.6 °C-25 °C53 %1040.6 hPaSW (230°)10.8 km/hSmoke
8:00 PM-23 °C-26 °C77 %1021 hPaWSW (250°)14.3 km/hClear
8:30 PM-23 °C-27 °C71 %1022 hPaSouth (170°)10.8 km/hClear
9:00 PM-23 °C-26 °C77 %1022 hPaWSW (250°)14.3 km/hClear
9:30 PM-26 °C-29 °C77 %1022 hPaSouth (190°)10.8 km/hClear
10:00 PM-26 °C-29 °C77 %1022 hPaSouth (180°)10.8 km/hClear
10:30 PM-27 °C-29 °C84 %1022 hPaSouth (180°)10.8 km/hClear
11:00 PM-22.8 °C-26.1 °C63 %1043.3 hPaWSW (250°)3.5 km/hPartly Cloudy
11:00 PM-29 °C-32 °C76 %1022 hPaSouth (170°)10.8 km/hClear
11:30 PM-27 °C-30 °C76 %1023 hPaSouth (180°)14.3 km/hClear
Hourly data recorded from ZMUB, located 0 kilometers away from Gachuunt, Mongolia







STORIES FROM OUR PARTNERS